View from above orbital plane
|
View from above satellite
|
Ground track
|
The orbit data is extracted from the following two-line orbital elements,
1 38756U 12047B 21016.76759127 .00000317 00000-0 53347-4 0 9994
2 38756 98.4046 207.1465 0010876 265.7202 94.2771 14.76713102450093
Epoch (UTC): | 16 January 2021 18:25:19 |
Eccentricity: | 0.0010876 |
inclination: | 98.4046° |
perigee height: | 632 km |
apogee height: | 647 km |
right ascension of ascending node: | 207.1465° |
argument of perigee: | 265.7202° |
revolutions per day: | 14.76713102 |
mean anomaly at epoch: | 94.2771° |
orbit number at epoch: | 45009 |
The dashed part of the orbit path shows where the satellite is in the earth's shadow,
|
|